Back to catalog

TURKSAT 3A

AliveCommunicationsGEO
NORAD 33056·PAYLOAD·🇹🇷 Turkey

Launched Jun 12, 2008 from Guiana Space Centre

Loading…

TLE

FreshSource: Space-Track

Epoch: Sep 14, 2026, 14:00 UTC

1 33056U 08030B   26257.58342105  .00000138  00000-0  00000-0 0  9990
2 33056   0.0536  82.3906 0004438  75.5914  87.6030  1.00274008 53252

Track TURKSAT 3A in real time with AllMySat

Download on the App Store